User: anonymous
Location: Cape Cod Imaging Station
(41.7417°N, 70.1583°W)
Time: 10:29:20
(UTC-04:00)
Language:

Cosmos 1508 Rocket - Orbit

View from above orbital plane
View from above orbital plane
View from above satellite
View from above satellite

Ground track
Ground track

The orbit data is extracted from the following two-line orbital elements,

1 14484U 83111B   14274.81406089  .00048813  00000-0  65945-3 0  6554
2 14484 082.8377 225.5636 0190152 249.8517 170.7423 15.39112938588918
Epoch (UTC): 01 October 2014 19:32:14
Eccentricity: 0.0190152
inclination: 82.8377°
perigee height: 319 km
apogee height: 578 km
right ascension of ascending node: 225.5636°
argument of perigee: 249.8517°
revolutions per day: 15.39112938
mean anomaly at epoch: 170.7423°
orbit number at epoch: 58891

The dashed part of the orbit path shows where the satellite is in the earth's shadow,  

DLR